S-NET B (43187 NORAD) Tracking and Keplerian Element Data

This shows tracking and keplerian element data for the satellite.

Feedback or suggestion? Click here.




ElementValue
Catalog43187
NameS-NET B
Epoch Orbit25411
Epoch Day269.9567903
Epoch Year2022
RAAN173.668
Inclination97.648
Eccentricity0.0009302
Argument of Perigee327.4988
Mean Anonmoly32.5661
Mean Motion14.98221491
Decay Rate2.621E-05
L11 43187U 18014H 22269.95679030 .00002621 00000+0 22549-3 0 9992
L22 43187 97.6480 173.6680 0009302 327.4988 32.5661 14.98221491254112

Live tracking and technical data element details for S-NET B (NORAD 43187). S-NET B can be tracked NOW for your location showing map with azimuth and elevation plus other details from your city location.

Track the satellite on the map from your city or location and see movement details for azimuth, elevation, latitude, longitude, range, height, and movement on the map or in text.







IsCatalogInMostPopularTable: catalog: 43187, numindb: 625
Update: records affected: 1



GetName: 43187 S-NET B

Hit Count: updated at: Fri, 30 Sep 2022 03:59:10 GMT